カタログに戻る

STARLINK-37550

運用中通信VLEO
NORAD 100277·PAYLOAD·🇺🇸 United States

打ち上げ Aug 11, 2026 から Cape Canaveral Space Force Station

Loading…

次のパス (今後24時間)

TLE

経年Source: Space-Track

元期: Sep 12, 2026, 14:47 UTC

1 A0277U 26183F   26255.61656217 -.00748338  00000-0 -60756-2 0  9991
2 A0277  53.1568 296.3800 0001293  65.0674 295.0480 15.72195858  5067

AllMySatでSTARLINK-37550をリアルタイム追跡

Download on the App Store